Tracking 27122 objects as of 24-Mar-2023
HD Live streaming from Space Station
objects crossing your sky now

STARLINK-4022

Track STARLINK-4022 now!
10-day predictions
STARLINK-4022 is classified as:


NORAD ID: 52629
Int'l Code: 2022-052AH
Perigee: 546.1 km
Apogee: 547.6 km
Inclination: 53.2 °
Period: 95.4 minutes
Semi major axis: 6917 km
RCS: Unknown
Launch date: May 14, 2022
Source: United States (US)
Launch site: AIR FORCE EASTERN TEST RANGE (AFETR)
Your satellite tracking list
Your tracking list is empty




NASA's NSSDC Master Catalog

Two Line Element Set (TLE):
1 52629U 22052AH  23082.74755130  .00001830  00000-0  13298-3 0  9990
2 52629  53.2150  86.1518 0001045 108.4592 251.6513 15.08845144 47655
Source of the keplerian elements: AFSPC